Wichita Jabara, KS

11:03 PM CDT on April 28, 2017 (GMT -0500)
Col Jabara

Weather History for KAAO - July, 2013

Change the Weather History Date:

Thursday, July 18, 2013

  Actual Average (KIAB) Record (KIAB)
Temperature  
Mean Temperature 81 °F -  
Max Temperature 93 °F 89 °F 107 °F (2006)
Min Temperature 69 °F 68 °F 60 °F (2014)
Cooling Degree Days 16    
Growing Degree Days 31 (Base 50)    
Moisture  
Dew Point 68 °F    
Average Humidity 65    
Maximum Humidity 97    
Minimum Humidity 42    
Precipitation  
Precipitation 0.00 in - - ()
Sea Level Pressure  
Sea Level Pressure 30.10 in    
Wind  
Wind Speed 7 mph (SSW)    
Max Wind Speed 18 mph    
Max Gust Speed 23 mph    
Visibility 10 miles    
Events      
Averages and records for this station are not official NWS values.
T = Trace of Precipitation, MM = Missing Value Source: NWS Daily Summary

Daily Weather History Graph

Daily Weather History Graph

Search for Another Location

Airport or City:

Trip Planner

Search our weather history database for the weather conditions in past years. The results will help you decide how hot, cold, wet, or windy it might be!

Date:

Astronomy

Jul. 18, 2013 Rise Set
Actual Time 6:21 AM CDT 8:48 PM CDT
Civil Twilight 5:51 AM CDT 9:18 PM CDT
Nautical Twilight 5:13 AM CDT 9:55 PM CDT
Astronomical Twilight 4:32 AM CDT 10:36 PM CDT
Moon 4:47 PM CDT (7/18) 2:11 AM CDT (7/18)
Length of Visible Light 15h 27m
Length of Day
14h 27m
Waxing Gibbous, 77% of the Moon is Illuminated
Jul 18
Waxing Gibbous
Jul 22
Full
Jul 29
Last Quarter
Aug 6
New
Aug 14
First Quarter

Hourly Weather History & Observations

Time (CDT) Temp. Heat Index Dew Point Humidity Pressure Visibility Wind Dir Wind Speed Gust Speed Precip Events Conditions
12:54 AM 77.0 °F - 69.1 °F 76% 30.18 in 10.0 mi SW 5.8 mph - N/A   Clear
1:54 AM 73.9 °F - 69.1 °F 85% 30.18 in 10.0 mi SSW 4.6 mph - N/A   Clear
2:54 AM 72.0 °F - 69.1 °F 91% 30.17 in 10.0 mi South 4.6 mph - N/A   Clear
3:54 AM 70.0 °F - 68.0 °F 93% 30.18 in 10.0 mi Calm Calm - N/A   Clear
4:54 AM 69.1 °F - 68.0 °F 96% 30.17 in 10.0 mi Calm Calm - N/A   Clear
5:54 AM 70.0 °F - 69.1 °F 97% 30.17 in 10.0 mi Calm Calm - N/A   Clear
6:54 AM 69.1 °F - 68.0 °F 96% 30.17 in 10.0 mi Calm Calm - N/A   Clear
7:54 AM 73.9 °F - 70.0 °F 87% 30.17 in 10.0 mi Calm Calm - N/A   Clear
8:54 AM 80.1 °F 83.2 °F 70.0 °F 71% 30.17 in 10.0 mi SSW 10.4 mph - N/A   Clear
9:54 AM 84.0 °F 88.4 °F 70.0 °F 63% 30.16 in 10.0 mi SSW 9.2 mph - N/A   Clear
10:54 AM 86.0 °F 90.7 °F 70.0 °F 59% 30.16 in 10.0 mi SW 12.7 mph - N/A   Clear
11:54 AM 89.1 °F 93.7 °F 69.1 °F 52% 30.13 in 10.0 mi South 12.7 mph 19.6 mph N/A   Partly Cloudy
12:54 PM 87.1 °F 90.6 °F 68.0 °F 53% 30.12 in 10.0 mi SSW 17.3 mph 21.9 mph N/A   Partly Cloudy
1:54 PM 91.0 °F 94.3 °F 66.9 °F 45% 30.10 in 10.0 mi SSW 17.3 mph 23.0 mph N/A   Partly Cloudy
2:54 PM 93.0 °F 96.4 °F 66.9 °F 42% 30.07 in 10.0 mi South 18.4 mph 23.0 mph N/A   Clear
3:54 PM 91.9 °F 95.9 °F 68.0 °F 45% 30.05 in 10.0 mi SSW 15.0 mph - N/A   Partly Cloudy
4:54 PM 91.9 °F 95.4 °F 66.9 °F 44% 30.03 in 10.0 mi SSW 11.5 mph 23.0 mph N/A   Clear
5:54 PM 91.9 °F 94.5 °F 66.0 °F 42% 30.01 in 10.0 mi South 13.8 mph 20.7 mph N/A   Partly Cloudy
6:54 PM 90.0 °F 91.7 °F 64.9 °F 43% 29.99 in 10.0 mi South 13.8 mph - N/A   Clear
7:54 PM 88.0 °F 89.3 °F 64.0 °F 45% 29.99 in 10.0 mi South 12.7 mph 19.6 mph N/A   Clear
8:54 PM 82.9 °F 84.6 °F 64.9 °F 54% 29.99 in 10.0 mi South 9.2 mph - N/A   Clear
9:54 PM 79.0 °F - 64.9 °F 62% 30.01 in 10.0 mi South 8.1 mph - N/A   Clear
10:54 PM 79.0 °F - 66.0 °F 64% 30.01 in 10.0 mi South 8.1 mph - N/A   Clear
11:54 PM 79.0 °F - 66.0 °F 64% 30.01 in 10.0 mi South 9.2 mph - N/A   Clear